Regional Weather Roundup
Issued by NWS

Home | Current Version | Previous Version | Graphics & Text | Print | Product List | Glossary On
Versions: 1 2 3 4 5 6 7 8 9 10 11 12 13 14 15 16 17 18 19 20 21 22 23 24 25 26 27 28 29 30 31 32 33 34 35 36 37 38 39 40 41 42 43 44 45 46 47 48 49 50
000
ASUS43 KIND 241809
RWRIN

WEATHER ROUNDUP FOR INDIANA
NATIONAL WEATHER SERVICE INDIANAPOLIS IN
100 PM EST FRI NOV 24 2017

NOTE: "FAIR" INDICATES FEW OR NO CLOUDS BELOW 12,000 FEET WITH NO
SIGNIFICANT WEATHER AND/OR OBSTRUCTIONS TO VISIBILITY.

* - STATION DOES NOT REPORT WEATHER SUCH AS PRECIPITATION OR FOG.

+ - STATION NOT QUALITY CONTROLLED BY THE NATIONAL WEATHER SERVICE.
    USE DATA WITH CAUTION...ESPECIALLY DEWPOINT AND RELATIVE
    HUMIDITY OBSERVATIONS.

INZ001>003-010>013-019-020-241900-
NORTHWEST INDIANA

CITY           SKY/WX    TMP DP  RH WIND       PRES   REMARKS
GARY /AIRPORT/ SUNNY     57  30  35 S14G30    29.65F
KNOX *+        SUNNY     52  32  46 S20       29.71F
LA PORTE +     SUNNY     52  34  50 S15G24    29.69F
6HR MIN TEMP:  31; 6HR MAX TEMP:  52;

MICHIGAN CITY+ SUNNY     54  32  43 S14G25    29.67F
MONTICELLO +   SUNNY     54  32  44 SW13G21   29.74F
6HR MIN TEMP:  32; 6HR MAX TEMP:  54;

RENSSELAER +   SUNNY     55  27  33 S23       29.71F
VALPARAISO     SUNNY     56  34  43 S14G25    29.69F
6HR MIN TEMP:  33; 6HR MAX TEMP:  56;


$$

LMZ046-743>745-241900-
SOUTHERN LAKE MICHIGAN

STATION/POSITION TIME  TEMP    WIND        PRES    WAVE
                       AIR SEA DIR/SP/G            HT
                 (UTC) (F)     (DEG/KT/KT) (MB)    (FT)
BURNS HARBOR     1743   53     180/ 19     1004.7F
MICHIGAN CITY    1740   51     160/ 17/ 23   N/A

$$

INZ004-005-014>016-021>024-241900-
NORTH CENTRAL INDIANA

CITY           SKY/WX    TMP DP  RH WIND       PRES   REMARKS
GOSHEN         SUNNY     52  31  44 S20       29.71F
6HR MIN TEMP:  32; 6HR MAX TEMP:  52;

LOGANSPORT +   SUNNY     52  34  50 S16       29.77F
PERU/GRISSOM   SUNNY     53  34  48 S15       29.75F
6HR MIN TEMP:  31; 6HR MAX TEMP:  53;

ROCHESTER +    SUNNY     54  32  43 S14       29.74F
SOUTH BEND     SUNNY     52  34  50 S16       29.71F
6HR MIN TEMP:  31; 6HR MAX TEMP:  52;

WARSAW +       SUNNY     50  32  50 SW7       29.74F

$$

INZ006>009-017-018-025>027-241900-
NORTHEAST INDIANA

CITY           SKY/WX    TMP DP  RH WIND       PRES   REMARKS
AUBURN +       SUNNY     52  30  43 SW13      29.76F
FORT WAYNE     MOSUNNY   54  34  46 SW17      29.77F
6HR MIN TEMP:  30; 6HR MAX TEMP:  54;

HUNTINGTON +   SUNNY     53  30  41 SW12G18   29.77F
6HR MIN TEMP:  32; 6HR MAX TEMP:  53;

KENDALLVILLE +   N/A     51  32  48 SW15G21   29.73F

$$

INZ028-029-035-036-043>045-051>053-241900-
WEST CENTRAL INDIANA

CITY           SKY/WX    TMP DP  RH WIND       PRES   REMARKS
CRAWFORDSVL +  SUNNY     52  34  50 S16       29.78F
6HR MIN TEMP:  29; 6HR MAX TEMP:  52;

GREENCASTLE +  SUNNY     50  30  46 SW7G17    29.81F
LAFAYETTE      SUNNY     54  33  45 SW13G21   29.76F
6HR MIN TEMP:  31; 6HR MAX TEMP:  54;

TERRE HAUTE    SUNNY     54  33  45 S12       29.82F
6HR MIN TEMP:  28; 6HR MAX TEMP:  54;


$$

INZ030>032-037>040-046>048-054>057-064-065-241900-
CENTRAL INDIANA

CITY           SKY/WX    TMP DP  RH WIND       PRES   REMARKS
ANDERSON       SUNNY     52  30  43 MISG      29.82
CP ATTERBURY + SUNNY     55  28  35 SW15      29.85F
COLUMBUS       SUNNY     52  25  35 S18       29.86F
FISHERS *+     SUNNY     55  36  47 SW13      29.80
FRANKFORT +    MOSUNNY   54  35  47 SW12G20   29.79F
6HR MIN TEMP:  33; 6HR MAX TEMP:  55;

GREENWOOD *+   SUNNY     59  32  36 SW12G17   29.83F
6HR MIN TEMP:  33; 6HR MAX TEMP:  59;

INDIANAPOLIS   PTSUNNY   54  30  40 S17       29.82F
6HR MIN TEMP:  30; 6HR MAX TEMP:  55;

-EAGLE CREEK   SUNNY     52  28  39 S9        29.80F
6HR MIN TEMP:  28; 6HR MAX TEMP:  54;

KOKOMO +       SUNNY     54  34  46 S15       29.78F
6HR MIN TEMP:  31; 6HR MAX TEMP:  54;

MARION +       SUNNY     50  33  52 S18G24    29.79F
MT COMFORT *+  SUNNY     52  36  54 S13       29.82F
SHELBYVILLE    SUNNY     54  28  36 S17       29.83F
6HR MIN TEMP:  31; 6HR MAX TEMP:  54;

ZIONSVILLE +   SUNNY     51  32  48 S14       29.80F
6HR MIN TEMP:  30; 6HR MAX TEMP:  51;


$$

INZ033-034-041-042-049-050-058-059-241900-
EAST CENTRAL INDIANA

CITY           SKY/WX    TMP DP  RH WIND       PRES   REMARKS
MUNCIE         SUNNY     55  29  36 SW15G26   29.79F
6HR MIN TEMP:  35; 6HR MAX TEMP:  55;

RICHMOND +     SUNNY     50  32  50 S14       29.85F

$$

INZ060-061-067>069-081>083-085>088-241900-
SOUTHWEST INDIANA

CITY           SKY/WX    TMP DP  RH WIND       PRES   REMARKS
EVANSVILLE     MOSUNNY   55  32  41 SW12      29.88F
6HR MIN TEMP:  30; 6HR MAX TEMP:  56;

HUNTINGBURG +  SUNNY     54  33  45 S12       29.89F
6HR MIN TEMP:  32; 6HR MAX TEMP:  54;

WASHINGTON +   SUNNY     56  30  36 S10       29.85F
6HR MIN TEMP:  31; 6HR MAX TEMP:  56;


$$

INZ062-063-066-070>080-084-089>092-241900-
SOUTH CENTRAL AND SOUTHEAST INDIANA

CITY           SKY/WX    TMP DP  RH WIND       PRES   REMARKS
BEDFORD +      SUNNY     55  25  30 S13       29.86F
BLOOMINGTON    SUNNY     53  29  39 S13       29.84F
6HR MIN TEMP:  27; 6HR MAX TEMP:  54;

MADISON *+     MOSUNNY   54  25  32 S8        29.90F
NORTH VERNON + SUNNY     52  28  40 S14       29.88F
SEYMOUR +      SUNNY     57  30  35 S15       29.87F

$$




USA.gov is the U.S. government's official web portal to all federal, state and local government web resources and services.